Location: Ao Por, Phuket, Thailand
(8.0591°N, 98.4362°E)
Time: 03:49:42
(UTC+07:00)

N. Korean satellite - Pass Details

Date: 04 October 2021
Orbit: 450 x 495 km, 97.3° (Epoch: 21 October)

Event Time Altitude Azimuth Distance (km) Brightness Sun altitude
Rises 04:53:32 0° 28° (NNE) 2,561 10.6 -20.8°
Reaches altitude 10° 04:55:49 10° 40° (NE) 1,684 9.8 -20.2°
Maximum altitude 04:58:57 27° 100° (E) 964 8.8 -19.4°
Drops below altitude 10° 05:02:05 10° 160° (SSE) 1,688 9.6 -18.6°
Sets 05:04:22 0° 172° (S) 2,569 10.4 -18.1°
